| time (UTC) | temp C | wind direction | speed KPH | gust KPH | rain 1hr cm | rain 24hr cm | rain mn cm | humidity % | barometer mb |
| 20260510120053 | 21 | 196 | 12.9 | 24.1 | 0.00 | 0.00 | 0.00 | 67 | 1011.0 |
| 20260510114553 | 21 | 215 | 11.3 | 24.1 | 0.00 | 0.00 | 0.00 | 67 | 1011.0 |
| 20260510113102 | 21 | 182 | 11.3 | 24.1 | 0.00 | 0.00 | 0.00 | 67 | 1010.8 |
| 20260510111607 | 21 | 200 | 11.3 | 24.1 | 0.00 | 0.00 | 0.00 | 67 | 1010.8 |
| 20260510110057 | 21 | 196 | 11.3 | 20.9 | 0.00 | 0.00 | 0.00 | 67 | 1010.8 |
| 20260510104555 | 21 | 177 | 8.0 | 20.9 | 0.00 | 0.00 | 0.00 | 66 | 1010.8 |
| 20260510103052 | 21 | 193 | 11.3 | 22.5 | 0.00 | 0.00 | 0.00 | 65 | 1010.5 |
| 20260510101553 | 22 | 191 | 9.7 | 25.7 | 0.00 | 0.00 | 0.00 | 65 | 1010.3 |
| 20260510100053 | 22 | 175 | 12.9 | 24.1 | 0.00 | 0.00 | 0.00 | 64 | 1010.3 |
| 20260510094553 | 22 | 200 | 12.9 | 29.0 | 0.00 | 0.00 | 0.00 | 63 | 1010.3 |
| 20260510093104 | 22 | 201 | 14.5 | 30.6 | 0.00 | 0.00 | 0.00 | 62 | 1010.3 |
| 20260510091553 | 22 | 225 | 17.7 | 32.2 | 0.00 | 0.00 | 0.00 | 61 | 1010.3 |
| 20260510090104 | 22 | 223 | 17.7 | 29.0 | 0.00 | 0.00 | 0.00 | 60 | 1010.4 |
| 20260510084552 | 22 | 195 | 17.7 | 37.0 | 0.00 | 0.00 | 0.00 | 59 | 1010.3 |
| 20260510083105 | 22 | 214 | 17.7 | 38.6 | 0.00 | 0.00 | 0.00 | 58 | 1010.2 |
| 20260510081607 | 22 | 198 | 16.1 | 30.6 | 0.00 | 0.00 | 0.00 | 57 | 1010.3 |
| 20260510080056 | 23 | 189 | 11.3 | 30.6 | 0.00 | 0.00 | 0.00 | 56 | 1010.5 |
| 20260510074558 | 23 | 157 | 16.1 | 29.0 | 0.00 | 0.00 | 0.00 | 56 | 1010.5 |
| 20260510073054 | 23 | 196 | 12.9 | 25.7 | 0.00 | 0.00 | 0.00 | 54 | 1010.8 |
| 20260510071552 | 23 | 236 | 14.5 | 35.4 | 0.00 | 0.00 | 0.00 | 53 | 1010.8 |
| 20260510070055 | 23 | 203 | 16.1 | 30.6 | 0.00 | 0.00 | 0.00 | 51 | 1010.9 |
| 20260510064604 | 23 | 221 | 14.5 | 27.4 | 0.00 | 0.00 | 0.00 | 48 | 1011.1 |
| 20260510063053 | 24 | 190 | 11.3 | 29.0 | 0.00 | 0.00 | 0.00 | 46 | 1011.1 |
| 20260510061551 | 25 | 189 | 12.9 | 24.1 | 0.00 | 0.00 | 0.00 | 45 | 1011.1 |
| 20260510060053 | 25 | 221 | 11.3 | 30.6 | 0.00 | 0.00 | 0.00 | 44 | 1011.0 |
| 20260510054556 | 25 | 173 | 11.3 | 25.7 | 0.00 | 0.00 | 0.00 | 43 | 1010.9 |
| 20260510053057 | 25 | 180 | 12.9 | 24.1 | 0.00 | 0.00 | 0.00 | 43 | 1010.8 |
| 20260510051559 | 25 | 180 | 14.5 | 29.0 | 0.00 | 0.00 | 0.00 | 42 | 1010.7 |
| 20260510050100 | 26 | 173 | 16.1 | 30.6 | 0.00 | 0.00 | 0.00 | 40 | 1010.8 |
| 20260510044637 | 26 | 194 | 16.1 | 35.4 | 0.00 | 0.00 | 0.00 | 39 | 1010.8 |
| 20260510043055 | 26 | 191 | 17.7 | 35.4 | 0.00 | 0.00 | 0.00 | 36 | 1010.8 |
| 20260510041556 | 26 | 177 | 14.5 | 25.7 | 0.00 | 0.00 | 0.00 | 32 | 1010.8 |
| 20260510040055 | 27 | 171 | 16.1 | 27.4 | 0.00 | 0.00 | 0.00 | 29 | 1010.8 |
| 20260510034554 | 27 | 186 | 12.9 | 25.7 | 0.00 | 0.00 | 0.00 | 29 | 1010.6 |
| 20260510033053 | 27 | 171 | 14.5 | 27.4 | 0.00 | 0.00 | 0.00 | 29 | 1010.4 |
| 20260510031557 | 27 | 200 | 12.9 | 24.1 | 0.00 | 0.00 | 0.00 | 29 | 1010.3 |
| 20260510030055 | 28 | 191 | 11.3 | 20.9 | 0.00 | 0.00 | 0.00 | 29 | 1010.2 |
| 20260510024553 | 28 | 178 | 9.7 | 17.7 | 0.00 | 0.00 | 0.00 | 27 | 1009.9 |
| 20260510023054 | 28 | 163 | 9.7 | 20.9 | 0.00 | 0.00 | 0.00 | 25 | 1009.8 |
| 20260510021557 | 30 | 185 | 9.7 | 19.3 | 0.00 | 0.00 | 0.00 | 23 | 1009.7 |
| 20260510020058 | 30 | 187 | 9.7 | 20.9 | 0.00 | 0.00 | 0.00 | 21 | 1009.5 |
| 20260510014553 | 31 | 202 | 9.7 | 20.9 | 0.00 | 0.00 | 0.00 | 21 | 1009.2 |
| 20260510013053 | 31 | 193 | 12.9 | 20.9 | 0.00 | 0.00 | 0.00 | 19 | 1009.1 |
| 20260510011556 | 32 | 229 | 14.5 | 29.0 | 0.00 | 0.00 | 0.00 | 17 | 1009.0 |
| 20260510010126 | 32 | 162 | 12.9 | 20.9 | 0.00 | 0.00 | 0.00 | 17 | 1008.9 |
| 20260510004554 | 32 | 216 | 12.9 | 32.2 | 0.00 | 0.00 | 0.00 | 16 | 1008.9 |
| 20260510003054 | 33 | 177 | 14.5 | 25.7 | 0.00 | 0.00 | 0.00 | 17 | 1008.9 |
| 20260510001554 | 33 | 209 | 11.3 | 33.8 | 0.00 | 0.00 | 0.00 | 17 | 1009.0 |
| 20260510000054 | 33 | 228 | 12.9 | 27.4 | 0.00 | 0.00 | 0.00 | 16 | 1009.0 |
| 20260509234613 | 33 | 221 | 8.0 | 27.4 | 0.00 | 0.00 | 0.00 | 16 | 1009.1 |
| 20260509233054 | 33 | 171 | 11.3 | 25.7 | 0.00 | 0.00 | 0.00 | 16 | 1009.0 |
| 20260509231554 | 33 | 187 | 8.0 | 25.7 | 0.00 | 0.00 | 0.00 | 16 | 1009.1 |
| 20260509230058 | 33 | 194 | 16.1 | 24.1 | 0.00 | 0.00 | 0.00 | 16 | 1009.3 |
| 20260509224553 | 33 | 210 | 11.3 | 25.7 | 0.00 | 0.00 | 0.00 | 16 | 1009.3 |
| 20260509223052 | 33 | 245 | 22.5 | 32.2 | 0.00 | 0.00 | 0.00 | 16 | 1009.4 |
| 20260509221554 | 33 | 219 | 17.7 | 29.0 | 0.00 | 0.00 | 0.00 | 17 | 1009.5 |
| 20260509214556 | 33 | 157 | 9.7 | 29.0 | 0.00 | 0.00 | 0.00 | 18 | 1009.8 |
| 20260509213057 | 33 | 192 | 17.7 | 33.8 | 0.00 | 0.00 | 0.00 | 17 | 1010.0 |
| 20260509211558 | 32 | 196 | 9.7 | 35.4 | 0.00 | 0.00 | 0.00 | 19 | 1010.3 |
| 20260509210057 | 32 | 221 | 12.9 | 33.8 | 0.00 | 0.00 | 0.00 | 20 | 1010.5 |
| 20260509204601 | 32 | 198 | 14.5 | 30.6 | 0.00 | 0.00 | 0.00 | 21 | 1010.9 |
| 20260509203138 | 32 | 228 | 17.7 | 33.8 | 0.00 | 0.00 | 0.00 | 19 | 1011.2 |
| 20260509201622 | 32 | 200 | 16.1 | 33.8 | 0.00 | 0.00 | 0.00 | 22 | 1011.5 |
| 20260509200100 | 31 | 133 | 12.9 | 29.0 | 0.00 | 0.00 | 0.00 | 25 | 1011.6 |
| 20260509194554 | 31 | 240 | 19.3 | 32.2 | 0.00 | 0.00 | 0.00 | 24 | 1011.8 |
| 20260509193119 | 31 | 221 | 9.7 | 27.4 | 0.00 | 0.00 | 0.00 | 27 | 1011.9 |
| 20260509191612 | 31 | 212 | 16.1 | 37.0 | 0.00 | 0.00 | 0.00 | 27 | 1012.1 |
| 20260509190057 | 31 | 209 | 11.3 | 29.0 | 0.00 | 0.00 | 0.00 | 29 | 1012.3 |
| 20260509184558 | 30 | 153 | 16.1 | 25.7 | 0.00 | 0.00 | 0.00 | 31 | 1012.3 |
| 20260509183057 | 30 | 160 | 14.5 | 30.6 | 0.00 | 0.00 | 0.00 | 31 | 1012.7 |
| 20260509181600 | 30 | 142 | 11.3 | 30.6 | 0.00 | 0.00 | 0.00 | 33 | 1012.9 |
| 20260509180104 | 29 | 221 | 16.1 | 30.6 | 0.00 | 0.00 | 0.00 | 34 | 1013.1 |
| 20260509174556 | 29 | 221 | 14.5 | 25.7 | 0.00 | 0.00 | 0.00 | 31 | 1013.2 |
| 20260509173101 | 28 | 242 | 16.1 | 27.4 | 0.00 | 0.00 | 0.00 | 35 | 1013.4 |
| 20260509171551 | 28 | 183 | 11.3 | 27.4 | 0.00 | 0.00 | 0.00 | 36 | 1013.4 |
| 20260509170058 | 28 | 232 | 12.9 | 29.0 | 0.00 | 0.00 | 0.00 | 37 | 1013.6 |
| 20260509164601 | 27 | 144 | 6.4 | 22.5 | 0.00 | 0.00 | 0.00 | 38 | 1013.6 |
| 20260509163055 | 27 | 203 | 14.5 | 29.0 | 0.00 | 0.00 | 0.00 | 40 | 1013.8 |
| 20260509161557 | 27 | 223 | 14.5 | 30.6 | 0.00 | 0.00 | 0.00 | 39 | 1013.9 |
| 20260509160053 | 26 | 223 | 14.5 | 24.1 | 0.00 | 0.00 | 0.00 | 43 | 1013.9 |
| 20260509154551 | 25 | 201 | 16.1 | 29.0 | 0.00 | 0.00 | 0.00 | 45 | 1013.8 |
| 20260509153105 | 25 | 223 | 14.5 | 25.7 | 0.00 | 0.00 | 0.00 | 47 | 1014.0 |
| 20260509151608 | 24 | 223 | 12.9 | 24.1 | 0.00 | 0.00 | 0.00 | 49 | 1014.1 |
| 20260509150056 | 23 | 223 | 14.5 | 25.7 | 0.00 | 0.00 | 0.00 | 56 | 1014.3 |
| 20260509144553 | 22 | 252 | 12.9 | 19.3 | 0.00 | 0.00 | 0.00 | 62 | 1014.4 |
| 20260509143054 | 21 | 252 | 12.9 | 17.7 | 0.00 | 0.00 | 0.00 | 67 | 1014.4 |
| 20260509141552 | 21 | 228 | 12.9 | 20.9 | 0.00 | 0.00 | 0.00 | 72 | 1014.3 |
| 20260509140054 | 20 | 215 | 9.7 | 19.3 | 0.00 | 0.00 | 0.00 | 76 | 1014.3 |
| 20260509134559 | 19 | 227 | 8.0 | 17.7 | 0.00 | 0.00 | 0.00 | 79 | 1014.1 |
| 20260509133104 | 18 | 239 | 9.7 | 17.7 | 0.00 | 0.00 | 0.00 | 81 | 1014.3 |
| 20260509131602 | 18 | 235 | 8.0 | 14.5 | 0.00 | 0.00 | 0.00 | 82 | 1014.0 |
| 20260509130109 | 17 | 9 | 6.4 | 14.5 | 0.00 | 0.00 | 0.00 | 83 | 1013.6 |
| 20260509124553 | 17 | 165 | 4.8 | 9.7 | 0.00 | 0.00 | 0.00 | 83 | 1013.5 |
| 20260509123056 | 16 | 195 | 4.8 | 11.3 | 0.00 | 0.00 | 0.00 | 83 | 1013.4 |
| 20260509121553 | 16 | 183 | 3.2 | 9.7 | 0.00 | 0.00 | 0.00 | 82 | 1013.2 |